Regional Weather Roundup
Issued by NWS

Home | Current Version | Previous Version | Graphics & Text | Print | Product List | Glossary On
Versions: 1 2 3 4 5 6 7 8 9 10 11 12 13 14 15 16 17 18 19 20 21 22 23 24 25 26 27 28 29 30 31 32 33 34 35 36 37 38 39 40 41 42 43 44 45 46 47 48 49 50
058
ASUS45 KBOU 082207
RWRCO

WEATHER ROUNDUP FOR COLORADO
NATIONAL WEATHER SERVICE DENVER/BOULDER CO
300 PM MST MON FEB 08 2016

NOTE: "FAIR" INDICATES FEW OR NO CLOUDS BELOW 12000 FEET WITH NO
SIGNIFICANT WEATHER AND/OR OBSTRUCTIONS TO VISIBILITY.

COZ001>005-013-030-031-082300-
...NORTHWEST COLORADO...

CITY           SKY/WX    TMP DP  RH WIND       PRES   REMARKS
CRAIG          MIX PCPN  24  16  71 SE3       30.54F
HAYDEN         CLOUDY    28  16  59 CALM      30.53S
MEEKER         CLOUDY    35  20  54 N3        30.51F
MOUNT WERNER   NOT AVBL
STEAMBOAT SPGS CLOUDY    29  17  59 SW3       30.51F
WALDEN         SUNNY     32  21  64 CALM      30.45F
$$

COZ006>008-011-082300-
...WEST CENTRAL VALLEYS...

CITY           SKY/WX    TMP DP  RH WIND       PRES   REMARKS
GRAND JUNCTION CLOUDY    36  24  62 N5        30.51F
MONTROSE       CLOUDY    39  20  46 NE5       30.53F
EAGLE          SUNNY     39  18  41 CALM      30.52F
RIFLE          CLOUDY    36  19  50 W5        30.51F
DELTA          CLOUDY    42  21  43 CALM      30.52F
NUCLA          CLOUDY    45  25  45 CALM      30.50F
$$

COZ017>023-064>068-082300-
...SOUTHWEST COLORADO...

CITY           SKY/WX    TMP DP  RH WIND       PRES   REMARKS
DURANGO        SUNNY     39  24  55 NE7       30.39F
CORTEZ         SUNNY     51  22  31 N21G26    30.38F
PAGOSA SPRINGS SUNNY     46  20  36 SW3       30.39F
TELLURIDE      CLOUDY    44  13  29 N5        30.50S
WOLF CREEK PAS SUNNY     32   9  37 N18G26    30.53R WCI  20
$$

COZ009-010-012-014-032>034-037-058>063-082300-
...CENTRAL COLORADO...

CITY           SKY/WX    TMP DP  RH WIND       PRES   REMARKS
ASPEN          SUNNY     40  20  44 N7        30.47F
BUENA VISTA    SUNNY     46  19  35 N20G26    30.37F
COPPER MTN     CLOUDY    28  18  64 NW14G26   30.49F WCI  17
BERTHOUD PASS  FAIR      19   9  63 NW41G52   30.42F WCI  -2
COTTONWOOD PAS MOSUNNY   45  18  33 CALM      30.43F
GUNNISON       CLOUDY    21  10  63 NE6       30.53F WCI  14
KREMMLING      CLOUDY    34  18  51 CALM      30.49S
LEADVILLE      CLOUDY    35  16  45 N17G29    30.44F WCI  25
MONARCH PASS   SUNNY     27  18  69 SW15      30.60S WCI  15
SALIDA         NOT AVBL
SUNLIGHT       SUNNY     32  23  69 W3          N/A
WILKERSON PASS SUNNY     32  14  47 NW7G22    30.45F WCI  26
$$

COZ069>075-082300-
...SAN LUIS VALLEY/SANGRE DE CRISTO MOUNTAINS...

CITY           SKY/WX    TMP DP  RH WIND       PRES   REMARKS
ALAMOSA        SUNNY     44  17  33 SW6       30.39F
LA VETA PASS   SUNNY     41  16  36 SW7       30.41F
SAGUACHE       SUNNY     46  21  36 N13       30.40S
$$

COZ035-036-038>040-082300-
...NORTHERN COLORADO FRONT RANGE...

CITY           SKY/WX    TMP DP  RH WIND       PRES   REMARKS
DENVER INTL AP CLOUDY    41  23  48 SE6       30.31F
DMNS CITY PARK   N/A     45  20  37 E12       30.32R
AURORA         PTSUNNY   41  24  50 SE7       30.33S
FRONT RANGE AP PTSUNNY   41  21  45 NE7       30.32F
ERIE MUNI ARPT SUNNY     46  22  40 SE7       30.32R
BOULDER MUN AP SUNNY     46  23  39 NE5       30.30F
CENTENNIAL     MOSUNNY   40  23  50 SE7       30.32S
BROOMFIELD     PTSUNNY   46  23  39 E7        30.31F VSB 0
FORT COLLINS   SUNNY     39  25  56 S9        30.32F
LONGMONT       SUNNY     49  24  38 CALM      30.33F
$$

COZ041-046-047-076>085-087-088-082300-
...PIKES PEAK/PALMER DIVIDE AND SOUTHERN FOOTHILLS...

CITY           SKY/WX    TMP DP  RH WIND       PRES   REMARKS
COLO. SPRINGS  MOSUNNY   35  21  56 E3        30.35F
A. F. ACADEMY  SUNNY     37  22  55 S7        30.33S
SCHRIEVER AFB  NOT AVBL
ELLICOTT       NOT AVBL
FALCON         SUNNY     38  21  49 SW5       30.35S
FORT CARSON    SUNNY     38  24  58 SE5       30.33F
LIMON          SUNNY     35  24  64 W10       30.31F WCI  27
MONUMENT HILL  SUNNY     34  21  60 E3        30.35R
TRINIDAD       SUNNY     48  19  31 SE6       30.33F
$$

COZ042>045-048>051-090-091-082300-
...NORTHEAST COLORADO...

CITY           SKY/WX    TMP DP  RH WIND       PRES   REMARKS
GREELEY ARPT   SUNNY     36  25  64 CALM      30.32F
AKRON          CLOUDY    37  29  72 NW10      30.29S
BURLINGTON     CLOUDY    38  23  55 NW10      30.29S
WRAY           CLOUDY    39  26  60 NW12      30.30S
STERLING       CLOUDY    39  32  75 N6        30.31R
HOLYOKE        MOSUNNY   41  27  56 NW21      30.29S
FORT MORGAN    CLOUDY    38  25  60 NW9       30.31F
$$

COZ086-089-092>099-082300-
...SOUTHEAST COLORADO...

CITY           SKY/WX    TMP DP  RH WIND       PRES   REMARKS
PUEBLO         SUNNY     49  22  34 E6        30.34F
LA JUNTA       SUNNY     46  23  40 N7        30.36F
LAMAR          SUNNY     48  24  39 W17       30.32F
SPRINGFIELD      N/A     45  20  36 N23G31    30.33F
$$




USA.gov is the U.S. government's official web portal to all federal, state and local government web resources and services.